Regional Weather Roundup
Issued by NWS

Home | Current Version | Previous Version | Text Only | Print | Product List | Glossary Off
Versions: 1 2 3 4 5 6 7 8 9 10 11 12 13 14 15 16 17 18 19 20 21 22 23 24 25 26 27 28 29 30 31 32 33 34 35 36 37 38 39 40 41 42 43 44 45 46 47 48 49 50

000
ASUS43 KDMX 250506
RWRIA

WEATHER ROUNDUP FOR IOWA
NATIONAL WEATHER SERVICE DES MOINES IA
1100 PM CST SAT FEB 24 2018

NOTE: "FAIR" INDICATES FEW OR NO CLOUDS BELOW 12,000 FEET WITH NO
SIGNIFICANT WEATHER AND/OR OBSTRUCTIONS TO VISIBILITY.

* - THESE STATIONS ARE NOT NWS STATIONS...THUS NOT UNDER NWS
QUALITY CONTROL.  THEY ALSO DO NOT REPORT WEATHER SUCH
AS PRECIPITATION OR FOG.

IAZ001>003-012>014-020>022-031>034-043>046-250600-
   NORTHWEST IOWA

CITY           SKY/WX    TMP DP  RH WIND       PRES   REMARKS
CARROLL *      CLOUDY    28  27  93 W20       29.70R WCI  15
CHEROKEE *     CLOUDY    21  18  89 W18G30    29.71R WCI   6
DENISON *      CLOUDY    28  25  86 W16G28    29.74R WCI  17
LE MARS *      MOCLDY    16  12  86 W13G20    29.74R WCI   2
ORANGE CITY *  LGT SNOW  18  18 100 W24       29.69R WCI   0
SHELDON *      MOCLDY    14  14 100 W22G30    29.66R FOG     WCI  -4
SIOUX CITY     PTCLDY    20  14  77 NW14      29.76R WCI   7
SPENCER        CLOUDY    19  14  81 W21G31    29.65R WCI   3
STORM LAKE *   MIX PCPN  23  21  93 W29G37    29.66R WCI   6
$$

IAZ055>058-069>071-079>083-090>094-250600-
   SOUTHWEST IOWA

CITY           SKY/WX    TMP DP  RH WIND       PRES   REMARKS
ATLANTIC *     MOCLDY    28  28 100 W10       29.76R WCI  19
AUDUBON *      MOCLDY    28  25  86 W7G16     29.74R WCI  21
CLARINDA *     PTCLDY    30  30 100 W13G20    29.83R WCI  20
COUNCIL BLFS * CLEAR     28  28 100 W16G23    29.79R WCI  17
CRESTON *      CLEAR     28  27  93 W18       29.76R WCI  16
LAMONI         CLEAR     29  26  89 SW15      29.77S WCI  18
RED OAK *      PTCLDY    30  27  86 W12       29.80R WCI  21
SHENANDOAH *   CLEAR     30  28  93 W15       29.83R WCI  19
$$

IAZ047>049-059>061-072>074-084-250600-
   CENTRAL IOWA

CITY           SKY/WX    TMP DP  RH WIND       PRES   REMARKS
AMES           CLOUDY    29  25  85 W16       29.69R WCI  17
ANKENY *       CLOUDY    30  27  86 W13G18    29.73R WCI  20
BOONE *        CLOUDY    28  27  93 W17G24    29.67S WCI  16
CHARITON *     CLOUDY    30  27  86 W14       29.75R WCI  20
DES MOINES     CLOUDY    30  26  85 W16       29.72R WCI  19
GRINNELL*      CLOUDY    30  27  86 W21G28    29.69R WCI  17
KNOXVILLE *    CLOUDY    30  27  86 W21       29.72R WCI  17
MARSHALLTOWN   MOCLDY    28  25  88 W24G32    29.66R WCI  14
NEWTON *       CLOUDY    30  27  86 W17G23    29.70R WCI  18
PELLA *        MOCLDY    31  30  97 W15G28    29.74R WCI  20
PERRY *        CLOUDY    30  28  93 W14       29.72R WCI  20
$$

IAZ004>006-015-016-023>025-035-036-250600-
   NORTH CENTRAL IOWA

CITY           SKY/WX    TMP DP  RH WIND       PRES   REMARKS
ALGONA *       CLOUDY    23 N/A N/A W26G33    29.62S FOG     WCI   6
CLARION *      CLOUDY    25  25 100 W18       29.64S FOG     WCI  11
ESTHERVILLE    CLOUDY    20  16  84 W25G35    29.61R FOG     WCI   2
FORT DODGE *   CLOUDY    26  23  88 W15G24    29.66R WCI  14
MASON CITY     PTCLDY    21  18  88 W22       29.60R FOG     WCI   5
FOREST CITY *  MOCLDY    23  21  93 W9        29.60R WCI  13
WEBSTER CITY * CLOUDY    27  25  93 W22       29.63F WCI  12
IOWA FALLS *   MOCLDY    27  25  90 W21G31    29.65R WCI  14
$$

IAZ007>011-017>019-026>030-037>042-050>054-066-250600-
   NORTHEAST IOWA

CITY           SKY/WX    TMP DP  RH WIND       PRES   REMARKS
CEDAR RAPIDS   CLOUDY    33  27  78 W24G33    29.62R WCI  20
CHARLES CITY * MIX PCPN  27  27 100 W23G31    29.58R WCI  12
CLINTON *      CLOUDY    36  33  89 W24G32    29.58R WCI  24
DECORAH *      CLOUDY    30  28  93 W14G24    29.50S WCI  20
DUBUQUE        CLOUDY    33  32  96 W26G37    29.53R WCI  20
MONTICELLO *   CLOUDY    34  30  86 W20G28    29.58R WCI  22
OELWEIN *      CLOUDY    30  30 100 W29G37    29.57R WCI  15
WATERLOO       FAIR      27  23  85 W17G36    29.61R WCI  14
$$

IAZ064-065-067-068-078-250600-
   EAST CENTRAL IOWA

CITY           SKY/WX    TMP DP  RH WIND       PRES   REMARKS
DAVENPORT      CLOUDY    36  31  82 W25G37    29.62R WCI  24
IOWA CITY      CLOUDY    35  32  88 W22G33    29.67R WCI  23
MT. PLEASANT *   N/A    N/A N/A N/A W21       29.71R
MUSCATINE *    CLOUDY    36  30  80 W28G38    29.67R WCI  23
QUAD CITIES    CLOUDY    37  33  85 W29G39    29.60R WCI  25
$$

IAZ062-063-075>077-085>089-095>099-250600-
   SOUTHEAST IOWA

CITY           SKY/WX    TMP DP  RH WIND       PRES   REMARKS
BURLINGTON     CLOUDY    35  33  92 W23G33    29.69R WCI  23
FAIRFIELD *    MOCLDY    34  28  80 W23G32    29.70R WCI  22
FORT MADISON * CLOUDY    36  32  87 W23G33    29.73R WCI  24
KEOKUK *       CLOUDY    36  32  87 W30G39    29.73R WCI  22
OSKALOOSA *    CLOUDY    31  30  94 W21G31    29.73R WCI  19
OTTUMWA        CLOUDY    33  31  92 W20G31    29.72R WCI  21
WASHINGTON *   CLOUDY    34  34 100 W21G30    29.70R WCI  22
$$

ABBREVIATIONS USED IN REMARKS
   TC - TEMPERATURES IN CELSIUS
  WCI - WIND CHILL INDEX
   HX - HEAT INDEX
  VSB - VISIBILITY
$$





USA.gov is the U.S. government's official web portal to all federal, state and local government web resources and services.